Location: Newark
(16.3678°N, 77.8722°E)
Time: 17:51:31
(UTC+00:00)

Envisat - Visible Passes

Search period start: 22 November 2019 00:00
Search period end: 02 December 2019 00:00
Orbit: 764 x 766 km, 98.1° (Epoch: 22 November)

Date Brightness Start Highest point End Pass type
(mag) Time Alt. Az. Time Alt. Az. Time Alt. Az.
22 Nov 4.4 13:37:28 10° SSW 13:42:10 38° W 13:46:52 10° NNW visible
23 Nov 6.2 00:22:41 10° ENE 00:25:24 15° E 00:28:08 10° SE visible
23 Nov 2.9 13:00:23 10° SSE 13:05:27 76° ENE 13:10:31 10° N visible
24 Nov 5.6 14:04:08 10° SW 14:07:41 19° W 14:11:13 10° NW visible
25 Nov 3.8 13:25:58 10° S 13:30:53 52° W 13:35:50 10° NNW visible
26 Nov 6.7 00:13:23 10° E 00:14:06 10° E 00:14:50 10° ESE visible
26 Nov 3.1 12:49:16 10° SSE 12:54:12 56° ENE 12:59:10 10° N visible
27 Nov 5.2 13:52:14 10° SSW 13:56:23 26° W 14:00:33 10° NW visible
28 Nov 5.9 00:35:45 10° NE 00:39:39 22° E 00:43:31 10° SSE visible
28 Nov 3.3 13:14:35 10° S 13:19:37 72° WSW 13:24:41 10° NNW visible
29 Nov 3.4 12:38:15 10° SE 12:42:59 41° ENE 12:47:43 10° N visible
29 Nov 6.1 14:19:53 10° WSW 14:21:55 12° W 14:23:58 10° WNW visible
30 Nov 4.7 13:40:32 10° SSW 13:45:06 34° W 13:49:41 10° NW visible
01 Dec 6.1 00:25:13 10° ENE 00:28:21 16° E 00:31:29 10° SE visible
01 Dec 2.9 13:03:18 10° SSE 13:08:22 85° ENE 13:13:27 10° N visible
